#timestamp,LO_Frequency,Hit,StdDev 
1635714015.9,286046997.2,N
1635714035.7,286047002.8,N
1635714055.5,286047004.4,N
1635714075.4,286047002.0,N
1635714095.2,286047003.4,N
1635714115.1,286047006.9,N
1635714116.0,286047006.9,N
1635714135.8,286047010.8,N
1635714155.6,286047008.0,N
1635714175.5,286047007.3,N
1635714195.3,286047000.7,N
1635714215.1,286046994.1,N
1635714235.9,286046988.5,N
1635714255.7,286046983.9,N
1635714275.5,286046981.0,N
1635714295.4,286046981.4,N
1635714315.2,286046982.7,N
1635714335.1,286046988.4,N
1635714336.0,286046988.4,N
1635714355.8,286046988.7,N
1635714375.6,286046991.5,N
1635714395.5,286046993.0,N
1635714415.3,286046994.4,N
1635714435.1,286046996.6,N
1635714455.9,286047000.5,N
1635714475.7,286047003.4,N
1635714495.6,286047002.9,N
1635714515.4,286047000.4,N
1635714535.2,286047002.2,N
1635714555.1,286047008.4,N
1635714556.0,286047008.4,N
1635714575.8,286047012.3,N
1635714595.6,286047012.4,N
1635714615.5,286047010.8,N
1635714635.3,286047014.5,N
1635714655.2,286047018.7,N
1635714675.9,286047014.9,N
1635714695.7,286047014.3,N
1635714715.6,286047011.7,N
1635714735.4,286047013.6,N
1635714755.2,286047016.9,N
1635714775.1,286047013.0,N
1635714776.0,286047013.0,N
1635714795.8,286047013.5,N
1635714815.7,286047006.4,N
1635714835.5,286047005.8,N
1635714855.3,286047010.7,N
1635714875.2,286047010.0,N
1635714895.0,286047010.8,N
1635714895.9,286047010.8,N
1635714915.8,286047007.9,N
1635714935.6,286047007.3,N
1635714955.4,286047002.2,N
1635714975.3,286047004.7,N
1635714995.1,286047005.9,N
1635715015.9,286047006.2,N
1635715035.7,286047002.9,N
1635715055.5,286047001.6,N
1635715075.4,286047000.8,N
1635715095.2,286047004.0,N
1635715115.0,286047004.7,N
1635715115.9,286047004.7,N
1635715135.8,286047008.1,N
1635715155.6,286047011.3,N
1635715175.5,286047011.2,N
1635715195.3,286047010.9,N
1635715215.1,286047012.9,Y
1635715235.9,286047004.0,P
1635715255.7,286047005.1,N
1635715275.6,286047007.6,P
1635715295.4,286047006.1,Y
1635715315.2,286047002.2,P
1635715335.1,286047005.5,N
1635715336.0,286047005.5,P
1635715355.8,286047002.2,N
1635715375.7,286046995.0,N
1635715395.5,286046993.4,N
1635715415.3,286046993.8,N
1635715435.2,286046996.4,N
1635715455.0,286046995.6,N
1635715455.9,286046995.6,N
1635715475.7,286046995.5,N
1635715495.6,286046990.7,N
1635715515.4,286046992.6,N
1635715535.3,286046992.0,N
1635715555.1,286046994.8,N
1635715556.0,286046994.8,N
1635715575.8,286046993.6,N
1635715595.7,286046995.1,N
1635715615.5,286046997.1,N
1635715635.3,286047001.5,N
1635715655.2,286047006.8,N
1635715675.0,286047009.2,N
1635715675.9,286047009.2,N
1635715695.8,286047010.6,N
1635715715.6,286047013.1,N
1635715735.4,286047014.7,N
1635715755.3,286047015.7,N
1635715775.1,286047022.0,N
1635715795.8,286047020.5,N
1635715815.7,286047022.8,N
1635715835.5,286047026.4,N
1635715855.4,286047022.8,N
1635715875.2,286047023.2,N
1635715895.0,286047021.0,N
1635715895.9,286047021.0,N
1635715915.8,286047022.5,N
1635715935.6,286047016.3,N
1635715955.4,286047018.1,N
1635715975.3,286047017.0,N
1635715995.1,286047016.0,N
1635716015.9,286047011.1,N
1635716035.7,286047011.0,N
1635716055.5,286047011.5,N
1635716075.4,286047015.4,N
1635716095.2,286047018.8,N
1635716115.1,286047019.3,N
1635716116.0,286047019.3,N
1635716135.8,286047016.5,N
1635716155.6,286047016.6,N
1635716175.5,286047014.2,N
1635716195.3,286047015.0,Y
1635716215.1,286046996.9,P
1635716235.9,286046995.4,N
1635716255.7,286046995.1,N
1635716275.6,286046991.0,N
1635716295.4,286046996.4,N
1635716315.2,286046995.0,N
1635716335.1,286046994.6,N
1635716336.0,286046994.6,N
1635716355.8,286046994.9,N
1635716375.6,286046992.1,N
1635716395.5,286046995.7,N
1635716415.3,286047002.7,N
1635716435.2,286047000.3,N
1635716455.9,286046998.2,N
1635716475.7,286047004.1,N
1635716495.6,286047004.5,N
1635716515.4,286047009.9,N
1635716535.2,286047012.1,N
1635716555.1,286047013.3,N
1635716556.0,286047013.3,N
1635716575.8,286047014.5,N
1635716595.7,286047015.4,N
1635716615.5,286047015.4,N
1635716635.3,286047015.4,N
1635716655.2,286047007.2,N
1635716675.0,286047006.8,N
1635716675.9,286047006.8,N
1635716695.7,286047006.9,N
1635716715.6,286047008.1,N
1635716735.4,286047006.1,N
1635716755.3,286047006.1,N
1635716775.1,286047007.8,N
1635716776.0,286047007.8,N
1635716795.8,286047008.6,N
1635716815.7,286047013.7,N
1635716835.5,286047013.1,N
1635716855.3,286047017.2,N
1635716875.2,286047019.2,N
1635716895.0,286047022.5,Y
1635716895.9,286047022.5,P
1635716915.8,286047012.8,N
1635716935.6,286047015.1,N
1635716955.4,286047011.0,N
1635716975.3,286047012.7,N
1635716995.1,286047011.5,N
1635717015.8,286047011.5,N
1635717035.7,286047008.1,N
1635717055.5,286047007.7,N
1635717075.4,286047006.1,N
1635717095.2,286047004.5,N
1635717115.0,286047004.9,N
1635717115.9,286047004.9,N
1635717135.8,286047007.5,N
1635717155.6,286047004.4,N
1635717175.4,286047000.3,N
1635717195.3,286047002.8,N
1635717215.1,286047002.8,N
1635717235.9,286047001.5,N
1635717255.7,286047009.1,N
1635717275.5,286047002.9,N
1635717295.4,286047005.9,N
1635717315.2,286047004.5,N
1635717335.0,286047007.1,N
1635717336.0,286047007.1,N
1635717355.8,286047008.0,N
1635717375.6,286047009.6,N
1635717395.5,286047011.3,N
1635717415.3,286047011.6,N
1635717435.1,286047010.6,N
1635717455.9,286047006.8,N
1635717475.7,286047005.2,N
1635717495.6,286047004.2,N
1635717515.4,286047007.6,N
1635717535.2,286047003.9,N
1635717555.1,286047005.8,N
1635717556.0,286047005.8,N
1635717575.8,286047007.0,N
1635717595.6,286047006.6,N
